Location: Arezzo
(43.4170°N, 11.8830°E)
Time: 19:40:23
(UTC+01:00)

STARLINK-2709 - Pass Details

Date: 29 October 2021
Orbit: 546 x 548 km, 53.1° (Epoch: 01 December)

Event Time Altitude Azimuth Distance (km) Brightness Sun altitude
Exits shadow 05:05:34 33° 92° (E) 937 5.3 -29.2°
Drops below altitude 10° 05:08:14 10° 65° (ENE) 1,819 7.1 -28.8°
Sets 05:10:32 0° 59° (ENE) 2,716 8.2 -28.3°
